Temp
-10 -10 -10 -10 -10 -10 -10 -10 -10 -10 -10 -10 -10 -10 -10 -10 -10 -10 -11 -11 -11 -11 -11 -10 -10 -10 -10 -10 -10 -10 -10 -11 -10 -10 -10 -10 -10 -10 -10 -10 -10 -11 -11 -11 -12 -12 -12 -12 -12 -12 -12 -12
-10 -10 -10 -10 -10 -10 -10 -10 -10 -10 -10 -10 -10 -10 -10 -10 -10 -10 -11 -11 -11 -11 -11 -11 -11 -11 -11 -11 -11 -11 -11 -11 -11 -11 -11 -11 -11 -10 -10 -10 -11 -11 -11 -11 -11 -12 -12 -12 -13 -12 -12 -12
-11 -11 -10 -11 -11 -10 -10 -10 -10 -10 -10 -10 -10 -10 -10 -10 -10 -10 -11 -11 -11 -11 -11 -11 -11 -11 -11 -11 -11 -11 -11 -11 -11 -11 -11 -11 -11 -11 -11 -11 -11 -11 -11 -10 -10 -11 -12 -12 -13 -13 -12 -12
-11 -11 -11 -11 -11 -11 -11 -11 -11 -11 -11 -11 -11 -10 -10 -10 -11 -11 -11 -11 -11 -11 -11 -11 -11 -11 -11 -11 -11 -11 -11 -11 -11 -11 -11 -11 -11 -11 -11 -11 -11 -11 -11 -11 -10 -11 -12 -12 -13 -13 -12 -12
-11 -11 -11 -11 -11 -11 -11 -11 -11 -11 -11 -11 -11 -11 -11 -11 -11 -11 -11 -11 -11 -11 -11 -11 -11 -11 -11 -11 -11 -11 -11 -11 -11 -11 -11 -11 -11 -11 -11 -11 -11 -11 -11 -11 -11 -11 -12 -12 -13 -12 -12 -13
-11 -11 -11 -11 -11 -11 -11 -11 -11 -11 -11 -11 -11 -11 -11 -11 -11 -11 -11 -11 -11 -11 -11 -11 -11 -11 -11 -11 -11 -11 -11 -11 -11 -11 -11 -11 -11 -11 -11 -11 -11 -11 -11 -11 -11 -12 -12 -12 -13 -12 -13 -13
-11 -11 -11 -11 -11 -11 -11 -11 -11 -11 -11 -11 -11 -11 -11 -11 -11 -11 -11 -11 -11 -11 -11 -11 -11 -11 -11 -11 -11 -11 -11 -11 -11 -11 -11 -11 -11 -11 -12 -12 -12 -12 -12 -12 -12 -12 -12 -12 -12 -12 -12 -12
-11 -11 -11 -11 -11 -11 -11 -11 -11 -11 -11 -11 -11 -11 -11 -11 -11 -11 -11 -11 -11 -11 -11 -11 -11 -11 -11 -11 -11 -11 -12 -12 -12 -12 -12 -12 -12 -12 -12 -12 -12 -12 -12 -12 -12 -12 -12 -12 -12 -12 -12 -12
-11 -11 -11 -11 -11 -11 -11 -11 -11 -11 -11 -12 -11 -11 -11 -11 -11 -11 -11 -11 -11 -11 -11 -11 -11 -11 -11 -11 -11 -11 -12 -12 -12 -12 -12 -12 -12 -12 -12 -12 -12 -12 -12 -12 -12 -12 -12 -12 -12 -12 -12 -12
-11 -11 -11 -11 -12 -12 -12 -12 -12 -12 -12 -12 -12 -12 -12 -12 -12 -12 -12 -12 -12 -11 -11 -11 -11 -11 -11 -11 -11 -11 -12 -12 -12 -12 -12 -12 -12 -12 -12 -12 -12 -12 -12 -12 -12 -12 -12 -12 -12 -12 -12 -12
-11 -11 -11 -12 -12 -12 -12 -12 -12 -12 -12 -12 -12 -12 -12 -12 -12 -12 -12 -12 -12 -12 -12 -12 -12 -12 -12 -12 -12 -12 -12 -12 -12 -12 -12 -12 -12 -12 -12 -12 -12 -12 -12 -12 -12 -12 -12 -12 -12 -12 -12 -12
-12 -12 -12 -12 -12 -12 -12 -12 -12 -12 -12 -12 -12 -12 -12 -12 -12 -12 -12 -12 -12 -12 -12 -12 -12 -12 -12 -12 -12 -12 -12 -12 -12 -12 -12 -12 -12 -12 -12 -12 -12 -12 -12 -12 -12 -12 -12 -12 -12 -13 -13 -13
-12 -12 -12 -12 -12 -12 -12 -12 -12 -12 -12 -12 -12 -12 -12 -12 -12 -12 -12 -12 -12 -12 -12 -12 -12 -12 -12 -12 -12 -12 -12 -12 -12 -12 -12 -12 -12 -12 -12 -12 -12 -12 -12 -12 -12 -12 -12 -13 -13 -13 -13 -13
-12 -12 -12 -12 -12 -12 -12 -12 -12 -12 -12 -12 -12 -12 -12 -12 -12 -12 -12 -12 -13 -12 -12 -12 -12 -12 -12 -12 -12 -12 -12 -12 -12 -12 -12 -12 -12 -12 -12 -12 -12 -12 -12 -12 -12 -13 -13 -13 -13 -13 -13 -13
-12 -12 -13 -13 -13 -13 -13 -13 -13 -13 -13 -13 -12 -12 -12 -12 -13 -13 -13 -13 -13 -13 -13 -13 -13 -13 -13 -13 -13 -12 -12 -12 -12 -12 -12 -12 -13 -13 -13 -13 -13 -13 -13 -13 -13 -13 -13 -13 -13 -13 -13 -13
-13 -13 -13 -13 -13 -13 -13 -13 -13 -13 -13 -13 -13 -13 -13 -13 -13 -13 -13 -13 -13 -13 -13 -13 -13 -13 -13 -13 -13 -13 -13 -13 -13 -13 -13 -13 -13 -13 -13 -13 -13 -13 -13 -13 -13 -13 -13 -13 -13 -13 -13 -13
-13 -13 -13 -13 -13 -13 -13 -13 -13 -13 -13 -13 -13 -13 -13 -13 -13 -13 -13 -13 -13 -13 -14 -14 -14 -14 -14 -13 -13 -13 -13 -13 -13 -13 -13 -13 -13 -13 -13 -13 -13 -13 -13 -13 -13 -13 -13 -13 -13 -13 -13 -13
-13 -13 -14 -14 -14 -14 -14 -14 -14 -14 -14 -14 -14 -14 -14 -14 -14 -14 -14 -14 -14 -14 -14 -14 -14 -14 -14 -14 -14 -14 -14 -14 -13 -13 -13 -13 -13 -13 -13 -13 -13 -13 -13 -13 -13 -13 -13 -13 -13 -13 -13 -13
-14 -14 -14 -14 -14 -14 -14 -14 -14 -14 -14 -14 -14 -14 -14 -14 -14 -14 -14 -14 -14 -14 -14 -14 -14 -14 -14 -14 -14 -14 -14 -14 -14 -14 -14 -14 -14 -14 -14 -14 -14 -14 -14 -14 -14 -14 -14 -14 -14 -14 -14 -14
-14 -14 -14 -14 -14 -15 -15 -15 -15 -15 -15 -15 -14 -14 -14 -14 -14 -14 -14 -14 -14 -15 -15 -15 -14 -14 -14 -14 -14 -14 -14 -14 -14 -14 -14 -14 -14 -14 -14 -14 -14 -14 -14 -14 -14 -14 -14 -14 -14 -14 -14 -14
-14 -14 -15 -15 -15 -15 -15 -15 -15 -15 -15 -15 -15 -15 -15 -15 -15 -15 -15 -15 -15 -15 -15 -15 -15 -15 -15 -15 -15 -15 -15 -15 -15 -15 -15 -15 -14 -14 -14 -14 -14 -14 -14 -14 -14 -14 -14 -14 -14 -14 -14 -14
-14 -15 -15 -15 -15 -15 -16 -16 -16 -16 -16 -16 -15 -15 -15 -15 -15 -15 -15 -15 -15 -15 -15 -15 -15 -15 -15 -15 -15 -15 -15 -15 -15 -15 -15 -15 -15 -15 -15 -15 -15 -15 -15 -15 -15 -15 -15 -15 -15 -15 -15 -15
-15 -15 -15 -16 -16 -16 -16 -16 -16 -16 -16 -16 -16 -16 -16 -16 -16 -16 -16 -16 -16 -16 -16 -16 -16 -16 -16 -16 -16 -16 -16 -16 -16 -15 -15 -15 -15 -15 -15 -15 -15 -15 -15 -15 -15 -15 -15 -15 -15 -15 -15 -15
-16 -16 -16 -16 -16 -17 -17 -17 -17 -17 -17 -17 -17 -17 -16 -16 -16 -16 -16 -16 -16 -16 -16 -16 -16 -16 -16 -16 -16 -16 -16 -16 -16 -16 -16 -16 -16 -16 -16 -16 -16 -16 -16 -16 -16 -16 -16 -15 -15 -15 -15 -15
-16 -16 -17 -17 -17 -17 -17 -17 -17 -17 -17 -17 -17 -17 -17 -17 -17 -17 -17 -17 -17 -17 -17 -17 -17 -17 -17 -17 -17 -17 -17 -17 -16 -16 -16 -16 -16 -16 -16 -16 -16 -16 -16 -16 -16 -16 -16 -16 -16 -16 -16 -16
-17 -17 -17 -18 -18 -18 -18 -18 -18 -18 -18 -18 -18 -18 -18 -18 -18 -18 -17 -17 -17 -17 -17 -17 -17 -17 -17 -17 -17 -17 -17 -17 -17 -17 -17 -17 -17 -17 -17 -17 -17 -17 -17 -17 -17 -17 -16 -16 -17 -17 -16 -16
-18 -18 -18 -18 -18 -18 -18 -18 -18 -18 -18 -18 -18 -18 -18 -18 -18 -18 -18 -18 -18 -18 -18 -18 -18 -18 -18 -18 -18 -18 -18 -18 -18 -17 -17 -17 -17 -17 -17 -17 -17 -17 -17 -17 -17 -17 -17 -17 -17 -17 -17 -17
-18 -18 -19 -19 -19 -19 -19 -19 -19 -19 -19 -19 -19 -19 -19 -19 -19 -19 -19 -19 -19 -19 -19 -19 -19 -19 -19 -19 -18 -18 -18 -18 -18 -18 -18 -18 -18 -18 -18 -18 -18 -18 -18 -18 -18 -18 -18 -18 -18 -18 -18 -18
-19 -19 -19 -19 -19 -19 -19 -19 -19 -19 -19 -19 -19 -19 -19 -19 -19 -19 -19 -20 -20 -19 -19 -19 -19 -19 -19 -19 -19 -19 -19 -19 -19 -19 -19 -19 -19 -19 -19 -19 -18 -18 -18 -18 -18 -18 -18 -18 -18 -18 -18 -18
-20 -20 -20 -20 -20 -20 -19 -19 -19 -19 -20 -20 -20 -20 -20 -20 -20 -20 -20 -20 -20 -20 -20 -20 -20 -20 -20 -20 -20 -20 -20 -20 -20 -19 -19 -19 -19 -19 -19 -19 -19 -19 -19 -19 -19 -19 -19 -19 -19 -19 -19 -19
-20 -20 -20 -20 -20 -20 -20 -20 -20 -20 -20 -20 -20 -20 -20 -20 -20 -20 -20 -20 -21 -21 -21 -21 -21 -21 -21 -21 -21 -21 -20 -20 -20 -20 -20 -20 -20 -20 -20 -20 -20 -20 -20 -19 -19 -19 -19 -19 -19 -19 -19 -19
Height
5835 5834 5833 5832 5831 5830 5829 5828 5827 5826 5825 5824 5823 5822 5821 5820 5819 5818 5817 5816 5815 5814 5813 5812 5811 5810 5809 5808 5807 5806 5805 5804 5804 5803 5802 5801 5800 5799 5798 5796 5795 5794 5793 5793 5792 5792 5792 5792 5793 5792 5792 5793
5831 5830 5830 5829 5828 5827 5826 5825 5824 5823 5822 5821 5820 5819 5818 5818 5817 5816 5814 5814 5812 5811 5810 5809 5808 5807 5806 5805 5804 5803 5802 5801 5800 5799 5798 5798 5797 5796 5795 5793 5792 5790 5789 5789 5788 5787 5787 5788 5788 5787 5787 5787
5829 5827 5826 5825 5824 5824 5823 5822 5821 5820 5818 5817 5816 5815 5815 5814 5814 5812 5811 5810 5809 5808 5807 5806 5805 5804 5803 5802 5801 5799 5798 5797 5797 5796 5795 5794 5793 5792 5791 5790 5788 5787 5785 5785 5785 5783 5782 5783 5782 5782 5782 5782
5825 5824 5823 5822 5821 5820 5819 5818 5817 5816 5815 5814 5813 5811 5811 5810 5810 5808 5807 5807 5805 5804 5803 5803 5802 5801 5799 5798 5797 5796 5795 5794 5793 5792 5791 5790 5789 5788 5787 5786 5785 5784 5781 5780 5780 5778 5778 5778 5777 5777 5777 5777
5821 5820 5819 5818 5817 5816 5815 5814 5814 5813 5812 5811 5809 5808 5807 5806 5805 5804 5803 5802 5800 5799 5799 5798 5797 5796 5795 5794 5793 5792 5791 5790 5789 5788 5787 5786 5785 5784 5783 5782 5781 5780 5778 5776 5776 5775 5775 5773 5770 5771 5771 5771
5817 5816 5815 5814 5812 5812 5811 5810 5809 5809 5808 5807 5806 5804 5803 5802 5801 5799 5799 5798 5796 5795 5794 5793 5792 5792 5791 5790 5789 5788 5787 5786 5785 5784 5783 5782 5781 5780 5779 5778 5777 5776 5774 5773 5772 5771 5770 5768 5766 5767 5766 5765
5813 5812 5811 5809 5808 5807 5806 5805 5804 5804 5803 5802 5801 5800 5799 5798 5796 5795 5794 5793 5791 5790 5789 5789 5787 5787 5786 5785 5784 5784 5783 5782 5781 5779 5778 5777 5777 5776 5774 5773 5772 5772 5770 5769 5768 5767 5765 5764 5763 5763 5761 5759
5809 5807 5806 5805 5804 5803 5802 5801 5799 5799 5798 5797 5796 5795 5794 5793 5792 5791 5789 5788 5786 5785 5784 5783 5782 5782 5781 5780 5779 5779 5778 5777 5776 5775 5774 5773 5772 5771 5770 5769 5768 5767 5766 5764 5764 5763 5761 5760 5759 5758 5756 5754
5804 5802 5801 5800 5799 5798 5797 5796 5794 5793 5793 5791 5790 5790 5789 5787 5787 5786 5784 5783 5781 5780 5779 5778 5777 5776 5775 5774 5774 5773 5772 5772 5771 5770 5769 5768 5767 5766 5765 5764 5763 5762 5761 5760 5759 5759 5757 5756 5754 5753 5752 5750
5799 5797 5796 5794 5793 5792 5791 5790 5789 5788 5787 5786 5785 5784 5783 5782 5781 5780 5779 5778 5776 5775 5774 5773 5772 5771 5770 5769 5768 5767 5767 5766 5765 5765 5764 5763 5762 5761 5761 5759 5758 5757 5756 5755 5755 5754 5753 5751 5750 5749 5747 5746
5794 5792 5791 5789 5788 5786 5785 5784 5783 5782 5781 5780 5779 5778 5777 5776 5775 5774 5773 5772 5771 5770 5768 5767 5766 5765 5764 5763 5762 5761 5760 5760 5760 5759 5758 5758 5756 5756 5755 5754 5753 5752 5751 5750 5749 5749 5748 5746 5745 5744 5742 5741
5788 5787 5785 5784 5783 5781 5779 5778 5777 5775 5774 5773 5772 5771 5771 5770 5769 5768 5767 5766 5765 5764 5763 5762 5760 5759 5758 5757 5756 5756 5755 5754 5753 5753 5752 5752 5751 5750 5749 5749 5748 5747 5746 5745 5744 5743 5742 5741 5740 5739 5738 5736
5782 5781 5780 5778 5777 5775 5774 5772 5771 5769 5768 5767 5765 5764 5764 5763 5762 5762 5761 5760 5758 5757 5757 5756 5754 5753 5752 5752 5751 5750 5749 5748 5747 5747 5746 5745 5745 5744 5743 5743 5742 5741 5740 5739 5738 5738 5737 5735 5734 5733 5732 5731
5776 5775 5773 5772 5770 5769 5767 5766 5765 5763 5762 5760 5759 5758 5757 5756 5755 5754 5754 5753 5752 5751 5750 5749 5748 5747 5746 5745 5745 5744 5743 5742 5741 5740 5740 5739 5739 5738 5737 5736 5736 5735 5734 5733 5733 5732 5731 5730 5729 5728 5727 5726
5770 5769 5767 5766 5764 5762 5761 5759 5758 5757 5755 5754 5753 5751 5750 5749 5748 5748 5747 5746 5745 5744 5743 5743 5742 5741 5740 5739 5739 5738 5737 5736 5735 5734 5733 5733 5732 5732 5731 5730 5730 5729 5728 5727 5726 5726 5725 5724 5723 5722 5721 5720
5764 5762 5761 5760 5758 5756 5755 5753 5752 5750 5749 5748 5747 5745 5744 5743 5742 5741 5740 5739 5738 5738 5737 5736 5735 5734 5734 5733 5732 5732 5731 5730 5729 5728 5727 5726 5726 5725 5725 5724 5723 5723 5722 5721 5720 5720 5719 5718 5717 5716 5715 5714
5757 5756 5754 5753 5752 5750 5748 5747 5745 5744 5742 5741 5740 5739 5737 5736 5735 5734 5733 5732 5731 5731 5730 5730 5729 5728 5727 5727 5726 5725 5725 5724 5723 5722 5721 5720 5719 5719 5718 5718 5717 5716 5716 5715 5714 5713 5712 5711 5710 5710 5709 5708
5751 5749 5748 5746 5745 5743 5742 5740 5739 5738 5736 5735 5734 5732 5731 5730 5729 5728 5727 5726 5725 5724 5724 5723 5722 5721 5721 5720 5719 5719 5718 5717 5717 5715 5714 5714 5713 5712 5712 5711 5710 5710 5709 5709 5708 5707 5706 5705 5704 5704 5703 5702
5744 5743 5741 5739 5738 5736 5735 5734 5732 5731 5730 5729 5727 5726 5725 5724 5722 5721 5720 5719 5718 5717 5717 5716 5716 5715 5714 5713 5713 5712 5712 5711 5710 5709 5708 5707 5707 5706 5705 5705 5704 5703 5703 5702 5701 5700 5700 5699 5698 5697 5697 5696
5737 5735 5734 5732 5731 5729 5728 5727 5726 5724 5723 5722 5721 5720 5718 5717 5716 5715 5714 5713 5712 5711 5710 5709 5709 5708 5708 5707 5706 5705 5705 5704 5704 5703 5702 5701 5701 5700 5699 5698 5698 5697 5696 5695 5695 5694 5693 5692 5692 5691 5690 5689
5730 5728 5726 5725 5723 5722 5721 5720 5719 5717 5717 5715 5714 5713 5712 5710 5709 5708 5707 5706 5705 5704 5703 5702 5702 5702 5701 5700 5699 5699 5698 5698 5697 5696 5696 5695 5694 5694 5693 5692 5691 5691 5690 5689 5688 5687 5686 5686 5685 5684 5683 5683
5723 5721 5719 5718 5716 5715 5714 5713 5712 5710 5710 5708 5708 5706 5705 5704 5703 5702 5700 5699 5699 5698 5697 5696 5695 5695 5694 5694 5693 5692 5692 5691 5691 5690 5689 5689 5688 5687 5686 5686 5685 5684 5684 5682 5681 5681 5680 5680 5679 5677 5677 5676
5716 5714 5712 5711 5709 5708 5707 5706 5705 5704 5703 5702 5701 5700 5699 5698 5697 5695 5694 5693 5692 5691 5690 5690 5689 5688 5688 5687 5686 5686 5685 5685 5684 5683 5683 5682 5682 5681 5680 5679 5679 5678 5677 5676 5675 5674 5674 5673 5672 5671 5670 5669
5709 5707 5706 5704 5703 5701 5700 5699 5698 5697 5696 5695 5694 5693 5692 5691 5690 5689 5688 5687 5686 5685 5684 5683 5683 5682 5681 5681 5680 5679 5679 5678 5677 5677 5676 5676 5675 5675 5674 5673 5673 5672 5671 5669 5669 5668 5667 5667 5666 5665 5664 5662
5703 5701 5699 5698 5696 5695 5693 5692 5691 5690 5689 5688 5687 5686 5685 5684 5683 5682 5681 5680 5679 5679 5678 5677 5676 5676 5675 5674 5674 5673 5673 5672 5671 5671 5670 5669 5669 5668 5668 5667 5666 5666 5665 5663 5663 5662 5661 5660 5659 5658 5657 5656
5696 5695 5693 5691 5690 5688 5687 5686 5685 5683 5683 5682 5680 5679 5679 5678 5677 5676 5675 5674 5673 5672 5671 5670 5670 5669 5668 5668 5667 5667 5666 5666 5665 5664 5664 5663 5663 5662 5662 5661 5660 5659 5659 5658 5657 5656 5655 5654 5653 5652 5651 5650
5690 5688 5687 5685 5684 5682 5681 5679 5678 5677 5676 5675 5674 5673 5672 5671 5670 5669 5668 5667 5666 5665 5664 5664 5663 5662 5662 5661 5661 5660 5660 5660 5659 5658 5658 5657 5657 5656 5656 5655 5654 5653 5652 5652 5651 5650 5649 5649 5648 5646 5644 5643
5684 5682 5681 5679 5678 5676 5675 5673 5672 5671 5670 5669 5668 5666 5666 5665 5664 5663 5662 5661 5660 5659 5658 5658 5657 5656 5656 5655 5655 5654 5654 5653 5653 5653 5652 5652 5651 5650 5650 5649 5648 5647 5646 5646 5645 5644 5643 5643 5643 5641 5639 5638
5678 5677 5675 5674 5672 5671 5669 5668 5666 5665 5664 5663 5662 5661 5660 5659 5658 5657 5656 5655 5654 5653 5652 5652 5651 5651 5650 5649 5649 5648 5648 5647 5647 5647 5646 5646 5645 5644 5644 5643 5642 5641 5640 5640 5639 5639 5638 5637 5637 5636 5634 5633
5673 5672 5670 5669 5667 5666 5664 5663 5661 5660 5659 5658 5656 5655 5654 5653 5652 5651 5650 5649 5648 5647 5647 5646 5646 5645 5645 5644 5643 5643 5642 5642 5641 5641 5641 5640 5639 5639 5638 5637 5637 5636 5635 5634 5633 5633 5632 5631 5631 5630 5629 5628
5668 5667 5665 5664 5662 5661 5660 5658 5656 5655 5654 5653 5651 5650 5649 5648 5647 5646 5645 5644 5643 5642 5642 5641 5640 5640 5639 5639 5638 5638 5637 5637 5636 5636 5635 5635 5634 5633 5633 5632 5631 5630 5629 5628 5627 5627 5626 5625 5625 5624 5623 5622
Wind_Speed
36 36 35 35 35 34 34 33 32 32 32 32 31 31 30 30 29 29 29 29 30 30 30 31 31 31 32 32 33 33 33 33 33 33 34 35 35 36 37 38 41 43 46 49 51 54 54 54 52 51 51 49
38 38 38 38 38 37 37 37 36 36 36 36 35 35 35 34 33 33 33 33 33 33 34 34 34 34 34 35 35 35 35 35 35 35 35 36 36 37 37 37 38 40 43 45 47 52 53 54 54 54 54 53
40 40 40 40 40 40 40 39 39 39 39 39 39 39 39 38 38 38 37 37 37 37 37 37 37 37 37 37 37 38 38 37 37 37 37 37 37 37 38 39 39 40 41 41 42 46 49 51 54 56 57 57
42 43 42 42 42 42 42 42 42 41 42 42 43 43 43 42 42 41 41 41 40 40 40 39 39 39 39 40 40 40 40 40 39 39 39 38 38 38 38 39 40 40 41 41 39 41 44 47 51 54 58 59
45 46 45 45 45 45 45 45 44 44 44 44 45 45 46 46 45 45 44 44 44 43 43 42 42 41 42 42 41 41 41 41 41 41 40 40 40 39 39 39 40 40 40 41 40 38 39 43 47 50 54 57
47 48 47 48 48 48 48 48 47 47 47 47 47 47 48 48 48 48 48 47 47 46 46 45 44 44 44 44 43 43 43 43 43 43 42 42 41 41 41 40 40 40 40 41 40 38 37 38 42 47 51 54
49 49 49 49 50 50 50 50 50 50 50 50 50 50 50 50 51 51 51 50 50 50 49 48 47 47 46 46 46 45 45 45 45 45 44 44 43 43 42 42 41 40 40 41 40 39 39 37 38 43 47 51
51 51 51 51 51 51 51 51 51 51 52 52 52 53 53 53 53 53 53 53 53 53 52 52 51 50 49 49 48 48 48 48 47 47 46 46 45 45 44 44 43 42 41 41 40 40 40 38 38 40 43 45
51 52 52 53 53 53 53 53 53 53 53 53 54 54 55 55 55 56 56 56 56 56 56 55 54 53 53 52 51 51 50 50 50 49 49 48 48 47 47 46 46 45 44 43 42 41 41 40 40 41 41 42
50 51 52 53 54 54 54 55 55 55 54 54 54 55 55 55 56 57 57 58 58 58 58 58 57 57 56 55 54 54 53 53 52 52 51 50 50 49 49 48 48 47 46 45 44 43 42 42 42 42 42 42
50 50 51 52 53 54 54 55 55 56 56 56 56 56 56 56 56 57 57 58 59 59 60 60 59 59 58 57 57 56 56 55 54 54 53 53 52 52 51 50 49 49 48 47 46 45 44 44 44 43 43 43
50 51 51 51 52 53 54 55 56 56 57 57 57 57 57 57 57 57 58 58 58 59 60 60 61 61 60 60 59 58 58 57 56 55 55 54 54 54 53 52 51 50 50 49 48 47 47 46 45 44 44 44
52 52 52 52 52 53 53 54 55 56 57 57 57 58 58 58 58 58 58 58 59 59 59 59 60 61 61 61 61 60 59 58 58 57 56 55 55 55 54 54 53 52 52 51 50 49 49 48 47 46 46 45
54 54 53 54 54 54 54 54 55 55 56 57 58 58 58 58 58 59 59 59 59 59 59 58 59 59 60 60 60 60 60 59 59 58 57 56 56 55 55 55 54 54 54 53 52 52 51 50 50 49 48 48
55 55 55 55 55 55 55 55 55 56 56 57 58 58 59 59 59 59 59 59 59 59 59 59 58 58 58 59 59 59 59 59 59 58 58 57 56 56 56 55 55 55 54 54 54 53 53 52 52 51 51 50
56 56 56 56 56 56 56 56 56 57 57 57 58 58 59 59 59 59 59 59 59 59 59 59 58 58 58 58 57 58 58 58 58 58 58 57 57 57 56 56 56 55 55 55 54 54 54 53 53 53 52 52
58 57 57 57 57 57 57 57 57 57 57 58 58 59 59 59 59 59 59 59 59 59 59 58 58 58 58 57 57 57 56 56 56 56 57 56 56 56 56 56 56 56 56 55 55 55 55 54 54 54 54 54
59 59 58 58 58 58 58 58 57 57 58 58 58 59 59 60 60 60 59 59 59 59 59 58 58 58 58 58 57 57 56 56 56 56 56 56 56 56 56 56 56 56 56 55 55 55 55 55 55 54 54 54
61 60 60 59 59 59 59 59 59 58 58 58 58 59 59 60 60 60 59 59 58 58 58 58 58 58 58 58 58 57 57 56 56 55 55 55 55 55 55 55 55 55 55 55 55 55 54 55 54 54 54 54
62 62 61 61 60 60 60 60 60 60 59 59 59 59 59 60 60 60 59 59 58 57 57 57 58 58 58 58 57 57 57 57 56 55 55 55 54 54 54 54 54 54 54 54 54 54 54 55 55 55 55 55
63 63 63 62 62 62 61 61 61 61 60 60 59 59 59 59 59 59 59 58 57 57 56 56 56 56 57 57 57 57 56 56 56 55 54 54 54 53 53 53 53 53 53 53 54 54 54 54 55 55 55 55
63 63 63 63 63 62 62 61 61 61 60 60 59 59 59 59 58 58 58 57 56 55 55 54 54 55 55 55 55 55 55 55 54 54 53 53 53 53 53 52 53 53 53 53 53 53 53 54 54 54 55 55
63 63 63 63 63 62 62 61 60 60 59 59 59 58 58 58 57 57 56 56 55 54 53 52 52 52 53 53 53 53 53 53 53 52 52 52 52 52 52 52 52 52 52 52 52 52 52 52 53 53 54 54
62 62 62 62 62 61 61 60 59 59 58 58 57 57 57 57 57 56 56 55 54 53 52 51 51 51 51 51 51 51 51 51 51 51 50 50 50 50 50 50 50 50 50 50 51 51 51 51 52 52 53 53
61 61 61 61 60 60 59 59 58 58 57 57 57 56 56 56 56 55 55 54 54 53 52 51 50 49 50 50 50 50 50 49 49 49 49 48 48 48 48 48 48 48 48 48 48 49 49 49 50 50 51 52
59 59 59 59 59 58 58 58 57 57 57 56 56 56 55 55 54 54 53 52 52 51 50 49 48 48 47 47 48 48 47 47 47 47 47 46 46 46 46 46 46 46 46 46 46 47 47 47 48 48 49 50
58 58 58 57 57 57 57 56 56 56 55 55 55 54 54 53 52 51 51 50 49 48 47 46 45 45 44 44 44 44 44 44 44 44 44 44 44 44 44 44 44 44 44 44 44 45 45 45 45 46 47 48
56 56 56 55 54 54 53 53 53 53 52 52 52 52 51 51 50 49 48 47 46 46 45 44 43 42 41 41 41 41 41 41 41 41 42 42 42 42 42 42 42 42 42 42 43 43 43 44 44 44 44 45
54 53 52 51 51 50 50 49 49 49 49 49 49 49 48 48 47 47 46 45 44 43 42 41 40 40 39 39 39 39 39 39 39 39 39 40 40 40 40 40 40 40 41 41 41 42 42 42 43 43 43 43
51 50 49 48 48 47 47 47 46 46 45 45 45 44 44 44 44 44 43 42 42 41 40 39 38 38 38 37 37 37 37 37 38 38 38 38 38 38 38 38 39 39 39 40 40 40 41 41 41 42 42 42
47 46 46 45 45 44 44 43 43 42 42 41 41 41 41 41 41 41 40 39 39 38 38 37 37 37 37 36 36 36 36 36 36 37 37 37 37 37 37 37 37 37 38 38 39 39 39 40 40 41 41 41
Wind_Direction
294 294 294 294 294 294 294 293 292 292 291 290 290 289 288 287 287 287 286 285 285 285 284 284 284 283 283 283 284 284 284 285 286 287 287 288 288 289 290 289 285 281 277 275 272 270 267 265 267 268 268 269
292 292 292 292 292 292 292 291 291 290 290 289 288 288 287 286 286 286 285 285 286 286 286 286 286 286 285 285 285 285 285 285 285 286 287 288 289 289 290 291 290 287 283 279 276 272 269 267 265 265 265 266
289 289 290 290 290 290 290 289 289 289 289 288 288 287 287 286 286 285 284 284 285 285 286 286 287 287 287 287 287 287 286 286 286 287 287 288 288 288 289 289 290 290 289 287 282 277 273 270 267 265 265 266
287 286 287 287 286 287 287 286 286 286 286 287 286 286 286 285 285 284 284 284 284 284 284 285 285 286 286 286 287 287 287 287 287 288 288 288 288 288 288 288 288 289 290 290 288 281 276 273 270 269 268 268
287 286 286 285 285 284 284 284 283 283 283 283 283 284 284 284 283 283 283 283 282 282 283 283 283 284 284 285 285 285 286 286 286 287 288 288 289 289 289 288 288 288 287 288 288 285 281 274 270 272 271 270
288 287 287 286 285 284 284 283 282 281 280 280 280 280 281 281 282 282 282 281 280 281 281 281 281 281 282 282 283 284 284 285 285 286 286 287 288 289 289 289 289 288 286 286 287 286 284 276 271 273 273 270
288 288 287 287 286 285 285 283 282 281 280 279 278 278 278 278 279 279 280 280 279 279 279 279 279 279 279 280 281 282 282 283 284 284 285 286 286 287 288 289 289 288 287 286 286 285 285 282 276 273 272 270
289 288 288 287 286 286 286 285 284 283 282 281 279 278 277 277 276 277 277 277 277 278 278 278 277 278 278 278 279 279 280 281 282 282 283 284 285 286 286 287 288 288 287 287 286 285 285 284 280 278 277 275
289 288 288 287 287 287 286 286 285 284 283 282 281 280 279 278 277 276 275 275 276 276 276 276 276 276 276 276 277 277 278 278 279 280 281 281 282 283 284 285 286 286 286 286 286 285 285 284 283 283 283 281
289 289 288 288 288 287 287 286 285 285 284 283 282 282 281 280 279 277 276 275 275 275 275 275 275 275 275 275 275 276 276 276 277 278 278 279 279 280 281 282 283 284 284 284 284 284 284 283 283 283 284 284
288 288 288 288 288 288 287 287 286 285 285 284 284 283 282 281 280 279 278 277 276 275 275 274 274 274 274 274 274 274 275 275 275 276 277 277 278 278 279 279 280 281 281 282 282 282 282 282 283 283 283 284
288 288 287 287 287 287 287 287 287 286 286 285 285 284 284 283 282 281 280 279 278 277 276 275 275 274 274 274 274 274 274 274 274 275 275 275 276 277 277 277 278 278 279 279 279 280 280 280 281 281 281 282
290 289 288 287 287 286 286 286 286 286 286 286 285 285 284 283 283 282 281 280 280 279 278 277 276 275 274 274 274 274 274 274 274 274 274 274 274 275 276 276 276 277 277 277 277 277 278 278 278 278 278 279
292 291 290 289 288 288 287 286 286 286 286 286 286 285 284 284 283 283 282 281 280 280 279 279 278 277 276 275 274 274 274 274 273 273 273 273 273 274 274 275 275 275 276 276 276 276 276 276 277 277 277 277
291 291 290 289 289 289 288 288 287 287 286 285 285 285 285 284 283 283 282 281 281 280 280 280 279 278 277 276 275 274 274 273 273 273 273 273 273 273 274 274 274 274 275 275 275 275 275 275 275 276 276 276
290 290 290 289 289 288 288 288 287 287 286 286 285 285 284 284 284 283 282 282 281 281 280 280 280 279 278 277 276 275 274 274 273 273 273 273 273 273 274 274 274 274 274 274 275 275 275 275 275 275 275 275
290 289 289 289 288 288 287 287 286 286 286 286 285 285 284 284 284 283 283 282 282 281 280 280 279 279 279 278 277 276 275 274 273 273 273 273 273 273 273 274 274 274 274 274 274 274 275 275 275 275 275 275
289 288 288 288 287 287 286 286 285 285 285 284 284 284 283 283 283 282 282 282 281 280 280 279 279 278 278 277 277 276 275 274 273 273 272 272 272 272 273 273 274 274 275 275 275 275 275 275 275 275 275 275
288 287 286 286 286 285 285 285 284 284 283 283 283 282 282 281 281 281 281 280 280 279 278 278 277 277 277 276 276 276 275 274 273 273 272 272 272 272 272 273 273 274 274 275 275 275 275 276 276 276 276 276
287 286 285 285 284 284 283 283 283 283 282 282 282 281 281 280 280 279 279 279 278 278 277 277 277 276 276 276 275 275 274 274 273 273 272 272 272 272 272 272 273 273 274 274 275 275 276 276 276 277 277 277
286 285 284 284 283 283 283 282 282 282 281 281 280 280 280 279 279 279 279 278 278 278 277 277 276 276 276 275 275 275 274 274 273 273 273 273 272 272 272 272 272 273 273 274 274 275 275 276 276 277 277 277
285 284 284 284 283 283 283 283 282 282 281 280 280 279 279 279 278 278 278 278 278 278 277 277 276 276 276 275 275 275 274 274 274 273 273 273 273 273 273 273 273 273 273 274 274 274 275 275 276 276 277 277
284 284 284 284 284 284 284 283 283 282 282 281 280 280 279 279 279 278 278 278 278 278 277 276 276 276 276 275 275 275 275 274 274 274 274 274 274 274 274 274 274 275 275 275 275 275 275 276 276 276 277 277
284 284 284 284 284 284 284 284 283 283 283 282 281 281 280 280 279 279 278 278 277 277 276 276 275 275 274 274 274 274 274 274 274 274 274 274 274 274 274 274 274 274 275 275 275 276 276 276 277 277 278 278
285 284 284 284 285 285 285 285 284 284 283 283 282 281 281 280 279 279 278 278 277 277 276 276 275 274 274 273 273 273 273 273 273 273 273 273 273 273 273 273 273 273 274 274 275 275 276 277 277 277 278 278
285 285 285 285 286 286 286 285 285 284 284 283 282 281 280 280 279 278 278 277 277 276 276 276 275 274 273 273 272 272 272 272 272 272 272 273 273 273 272 273 273 273 273 274 275 275 276 276 277 278 278 278
286 286 286 286 287 287 286 286 285 284 284 283 282 281 280 279 278 277 276 276 275 275 274 274 273 273 272 272 271 271 271 271 271 271 272 272 272 272 272 273 273 273 274 274 275 275 276 276 277 278 278 279
287 287 287 287 287 287 286 286 285 284 284 283 282 281 280 279 277 276 275 274 273 272 272 271 271 271 270 270 270 270 270 270 270 270 271 271 271 272 272 272 273 273 274 274 275 275 276 276 276 277 278 279
286 286 286 286 286 286 286 286 286 285 285 284 283 282 281 279 277 276 274 272 271 270 270 269 269 269 269 269 269 269 269 269 270 270 270 270 271 271 272 272 273 273 273 274 274 275 275 276 276 277 278 279
286 286 286 286 286 287 287 287 287 287 287 287 286 284 283 280 278 276 274 272 271 271 270 270 270 270 270 270 270 270 270 270 270 270 270 271 271 272 272 273 273 274 274 275 275 275 276 277 277 278 279 280
287 287 287 287 287 288 288 289 289 290 290 290 288 287 285 282 280 278 276 274 273 272 272 272 271 271 271 271 271 271 271 271 271 271 271 272 272 273 273 274 275 276 277 277 278 279 279 280 280 281 281 282